"Pseudo-MPEC" for P11ZSjI

Created 2024 Oct 5 7:22:22 UT using Find_Orb

Click here for an explanation of pseudo-MPECs

 
 Astrometry: 
     P11ZSjI* C2024 10 01.59908407 27 12.956+05 31 11.27   ~A1Hb 21.23wXNEOCPF51
     P11ZSjI  C2024 10 01.60692407 27 13.943+05 31 00.05   ~A1Hb 21.57wXNEOCPF51
     P11ZSjI  C2024 10 01.61475807 27 14.927+05 30 48.54   ~A1Hb 21.74wXNEOCPF51
     P11ZSjI  C2024 10 01.62256607 27 15.907+05 30 37.39   ~A1Hb 21.54wXNEOCPF51

Station data:
(F51) Pan-STARRS 1, Haleakala  (N20.707234 W156.255910)  US/Hawaii.
   Observers J. Bulger, T. Lowe, A. Schultz, M. Willman. Measurers K.
   Chambers, S. Chastel, T. de Boer, L. Denneau, J. Fairlamb, H. Flewelling,
   M. Huber, C.-C. Lin, E. Magnier, Y. Ramanjooloo, R. Wainscoat, R. Weryk.
   1.8-m Ritchey-Chrétien + CCD.

Orbital elements:  P11ZSjI
   Perihelion 2024 Nov 27.71797 +/- 79.6 TT = 17:13:52 (JD 2460642.21797)
Epoch 2024 Oct  2.0 TT = JDT 2460585.5   Earth MOID: 0.1637   Ve: 0.0598
M 249.07935489 +/- 90               Me: 0.0198                   AutoNEOCP
n   1.95565265 +/- 1.14             Peri.  138.36076 +/- 90
a   0.63329817 +/- 0.246            Node    16.30686 +/- 110
e   0.9138680 +/- 0.257             Incl.  160.09479 +/- 60
P   0.504/184.078d         H 19.62  G  0.15   U 12.8  SR
q 0.05454722 +/- 0.487    Q 1.21204911 +/- 14.4           (J2000 ecliptic)
From 4 observations 2024 Oct. 1 (33.8 min); mean residual 0".05
Residuals in arcseconds: 
241001 F51  .01-  .02-    241001 F51  .00   .10-    
241001 F51  .01+  .08+    241001 F51  .00   .04+    

Ephemerides (geocentric):
Date (UTC) HH   RA             Dec           delta  r     elong  mag " sig PA
---- --------  ------------   ------------  ------ ------ -----  --- --------
2024 10 05 07  07 36 03.652   +03 50 03.81  .65036 1.0695  77.6 21.2  35d  86
2024 10 05 08  07 36 10.355   +03 48 45.90  .64936 1.0691  77.6 21.2  35d  86
2024 10 05 09  07 36 17.076   +03 47 27.75  .64836 1.0688  77.6 21.2  35d  86
2024 10 05 10  07 36 23.816   +03 46 09.35  .64737 1.0685  77.6 21.2  35d  86
2024 10 05 11  07 36 30.575   +03 44 50.71  .64637 1.0682  77.6 21.2  35d  85
2024 10 05 12  07 36 37.352   +03 43 31.83  .64537 1.0679  77.6 21.2  36d  85
2024 10 05 13  07 36 44.147   +03 42 12.71  .64437 1.0675  77.7 21.1  36d  85
2024 10 05 14  07 36 50.962   +03 40 53.34  .64338 1.0672  77.7 21.1  36d  85
2024 10 05 15  07 36 57.795   +03 39 33.72  .64238 1.0669  77.7 21.1  37d  85
2024 10 05 16  07 37 04.647   +03 38 13.86  .64138 1.0666  77.7 21.1  37d  85
2024 10 05 17  07 37 11.519   +03 36 53.75  .64039 1.0662  77.7 21.1  38d  85
2024 10 05 18  07 37 18.409   +03 35 33.38  .63939 1.0659  77.7 21.1  38d  84
2024 10 05 19  07 37 25.319   +03 34 12.77  .63839 1.0656  77.7 21.1  38d  84
2024 10 05 20  07 37 32.248   +03 32 51.90  .63739 1.0653  77.7 21.1  39d  84
2024 10 05 21  07 37 39.197   +03 31 30.78  .63640 1.0649  77.7 21.1  39d  84
2024 10 05 22  07 37 46.165   +03 30 09.41  .63540 1.0646  77.7 21.1  39d  85
2024 10 05 23  07 37 53.153   +03 28 47.78  .63440 1.0643  77.7 21.1  40d  85
2024 10 06 00  07 38 00.160   +03 27 25.89  .63340 1.0640  77.7 21.1  40d  85
2024 10 06 01  07 38 07.188   +03 26 03.75  .63241 1.0636  77.8 21.1  40d  85
2024 10 06 02  07 38 14.235   +03 24 41.34  .63141 1.0633  77.8 21.1  40d  85
2024 10 06 03  07 38 21.303   +03 23 18.67  .63041 1.0630  77.8 21.1  40d  85
2024 10 06 04  07 38 28.390   +03 21 55.75  .62941 1.0626  77.8 21.1  41d  85
2024 10 06 05  07 38 35.498   +03 20 32.55  .62842 1.0623  77.8 21.1  41d  85
2024 10 06 06  07 38 42.627   +03 19 09.10  .62742 1.0620  77.8 21.1  41d  85
2024 10 06 07  07 38 49.775   +03 17 45.37  .62642 1.0617  77.8 21.1  41d  85
2024 10 06 08  07 38 56.945   +03 16 21.39  .62542 1.0613  77.8 21.1  41d  85
2024 10 06 09  07 39 04.135   +03 14 57.13  .62443 1.0610  77.8 21.1  41d  85
2024 10 06 10  07 39 11.346   +03 13 32.60  .62343 1.0607  77.8 21.1  41d  85
2024 10 06 11  07 39 18.578   +03 12 07.80  .62243 1.0603  77.8 21.1  41d  85
2024 10 06 12  07 39 25.831   +03 10 42.73  .62143 1.0600  77.8 21.1  41d  85
2024 10 06 13  07 39 33.105   +03 09 17.39  .62044 1.0597  77.8 21.1  42d  85
2024 10 06 14  07 39 40.400   +03 07 51.77  .61944 1.0593  77.8 21.1  42d  85
2024 10 06 15  07 39 47.717   +03 06 25.87  .61844 1.0590  77.9 21.1  42d  85
2024 10 06 16  07 39 55.055   +03 04 59.70  .61744 1.0587  77.9 21.1  42d  85
2024 10 06 17  07 40 02.415   +03 03 33.25  .61645 1.0583  77.9 21.1  42d  85
2024 10 06 18  07 40 09.797   +03 02 06.52  .61545 1.0580  77.9 21.1  42d  85
2024 10 06 19  07 40 17.200   +03 00 39.50  .61445 1.0577  77.9 21.1  43d  85
2024 10 06 20  07 40 24.626   +02 59 12.21  .61345 1.0573  77.9 21.1  43d  85
2024 10 06 21  07 40 32.073   +02 57 44.62  .61246 1.0570  77.9 21.1  43d  85
2024 10 06 22  07 40 39.543   +02 56 16.76  .61146 1.0567  77.9 21.1  43d  85
2024 10 06 23  07 40 47.035   +02 54 48.60  .61046 1.0563  77.9 21.1  44d  85
2024 10 07 00  07 40 54.549   +02 53 20.16  .60946 1.0560  77.9 21.1  44d  85
2024 10 07 01  07 41 02.086   +02 51 51.43  .60846 1.0556  77.9 21.0  44d  85
2024 10 07 02  07 41 09.646   +02 50 22.40  .60747 1.0553  77.9 21.0  44d  85
2024 10 07 03  07 41 17.228   +02 48 53.09  .60647 1.0550  77.9 21.0  45d  85
2024 10 07 04  07 41 24.833   +02 47 23.48  .60547 1.0546  77.9 21.0  45d  85
2024 10 07 05  07 41 32.462   +02 45 53.57  .60447 1.0543  77.9 21.0  45d  85
2024 10 07 06  07 41 40.113   +02 44 23.37  .60348 1.0540  77.9 21.0  45d  85